Location: Dittelbrunn
(50.0738°N, 10.2196°E)
Time: 23:28:01
(UTC+00:00)

Cosmos 1634 Rocket - Pass Details

Date: 18 September 2020
Orbit: 961 x 991 km, 82.9° (Epoch: 30 October)

Event Time Altitude Azimuth Distance (km) Brightness Sun altitude
Exits shadow 19:34:23 32° 150° (SSE) 1,581 4.6 -20.6°
Maximum altitude 19:36:58 53° 92° (E) 1,173 4.1 -21.0°
Drops below altitude 10° 19:42:58 10° 17° (NNE) 2,718 6.5 -21.8°
Sets 19:45:32 0° 13° (NNE) 3,672 7.3 -22.1°
